Location: Ernsee
(50.8780°N, 12.0389°E)
Time: 16:58:18
(UTC+00:00)

Orbus 7S? - Pass Details

Date: 20 January 2020
Orbit: 324 x 6445 km, 57.0° (Epoch: 20 February)

Event Time Altitude Azimuth Distance (km) Brightness Sun altitude
Exits shadow 02:35:12 - 78° (ENE) 2,355 7.3 -41.6°
Enters shadow 04:47:26 -50° 303° (WNW) 12,266 10.0 -21.0°
Maximum altitude 05:16:17 54° 214° (SW) 694 3.6 -16.5°
